Location: Bouhet
(46.1654°N, 0.8582°W)
Time: 16:40:37
(UTC+00:00)

Daily predictions for brighter satellites

Satellite Brightness Start Highest point End
(mag) Time Altitude Azimuth Time Altitude Azimuth Time Altitude Azimuth
Cosmos 2322 Rocket 2.6 20:29:31 10° SSW 20:35:13 73° WNW 20:40:57 10° NNE
SL-16 R/B 3.1 20:30:27 10° SW 20:36:02 57° WNW 20:41:39 10° NNE
Resurs 1-3 4.4 20:35:53 10° S 20:40:09 51° W 20:44:27 10° NNW
Cosmos 2173 Rocket 4.2 20:34:44 10° N 20:41:04 60° ENE 20:47:20 10° SSE
Cosmos 1025 Rocket 3.7 20:37:53 10° SSE 20:41:55 38° E 20:45:58 10° NNE
SPOT 3 Rocket 3.6 20:39:44 10° SSE 20:44:55 86° ENE 20:50:09 10° NNW
Cosmos 1953 2.4 20:42:29 10° N 20:46:34 71° E 20:50:36 10° SSE
SL-8 R/B 4.0 20:42:07 10° WNW 20:46:48 55° SSW 20:51:28 10° SE
Cosmos 1300 4.3 20:44:11 10° NNE 20:47:11 21° ENE 20:50:09 10° ESE
FALCON 9 DEB 4.4 20:47:55 10° W 20:51:14 45° NNW 20:54:33 10° NE
Cosmos 1340 3.6 20:48:04 10° SSE 20:51:22 30° E 20:54:41 10° NNE
Meteor 1-16 Rocket 4.1 20:48:44 10° N 20:54:12 88° E 20:59:31 10° S
Cosmos 1110 Rocket 4.0 20:51:08 10° SSW 20:56:19 84° ESE 21:01:34 10° NNE
FALCON 9 DEB 2.8 20:55:20 10° SW 20:58:25 65° SSE 21:01:33 10° ENE
Cosmos 1844 Rocket 2.9 20:54:20 10° NNW 21:00:00 71° WSW 21:05:38 10° SSE
DNEPR-1 R/B 3.7 20:55:50 10° NNW 21:00:02 66° NE 21:04:07 12° SE
Cosmos 1725 Rocket 4.4 20:54:27 10° N 21:00:26 48° ENE 21:06:08 11° SSE
Cosmos 2322 3.9 20:55:06 10° S 21:00:33 52° ESE 21:06:03 10° NE
Cosmos 1727 Rocket 4.4 20:54:37 10° SSW 21:00:53 69° W 21:07:09 10° N
CARTOSAT-1 3.9 20:56:53 10° SSE 21:00:59 50° ENE 21:05:11 10° N
Cosmos 2278 Rocket 3.6 20:56:28 10° N 21:01:15 27° NE 21:05:58 10° ESE
COSMOS 2428 3.3 20:58:15 10° S 21:03:30 39° ESE 21:08:48 10° NE
ATLAS 3B R/B 2.6 21:02:08 10° SSW 21:08:36 66° ESE 21:15:16 10° NE
Meteor 2-11 Rocket 4.5 21:03:25 10° N 21:09:34 84° E 21:15:39 10° S
Aureole 1 Rocket 4.5 21:04:02 10° NNW 21:10:14 72° WSW 21:18:00 10° S
Cosmos 1626 2.0 21:07:19 10° S 21:11:00 79° E 21:14:42 10° NNE
Cosmos 1975 Rocket 3.7 21:07:03 10° SSW 21:11:21 57° WNW 21:15:43 10° N
USA 245 4.3 21:06:57 10° SSE 21:12:06 89° WSW 21:18:11 10° NNW
FALCON 9 DEB 3.1 21:09:16 10° WSW 21:12:22 72° NNW 21:15:28 10° ENE
MetOp-B 4.4 21:07:08 10° S 21:12:28 68° WSW 21:17:49 10° NNW
ATLAS CENTAUR R/B 4.5 21:13:48 10° ESE 21:15:41 12° E 21:18:06 10° ENE
Cosmos 405 3.1 21:13:38 10° N 21:17:03 57° ENE 21:19:35 16° SSE
Cosmos 1908 3.9 21:14:32 10° NNW 21:18:20 53° W 21:22:04 10° S
Cosmos 1459 Rocket 4.1 21:14:18 10° NNW 21:20:22 75° W 21:26:24 10° S
FALCON 9 DEB 3.0 21:18:39 10° WSW 21:21:45 76° NNW 21:24:53 10° ENE
CZ-2C R/B 4.0 21:17:18 10° N 21:22:05 74° WNW 21:26:50 10° SSW
FALCON 9 DEB 3.4 21:20:13 10° WSW 21:23:18 63° NNW 21:26:25 10° NE
Cosmos 1802 Rocket 4.1 21:16:59 10° N 21:23:19 86° W 21:29:42 10° S
Terra 2.3 21:24:33 16° SE 21:28:09 49° ENE 21:32:44 10° N
ERS-1 Rocket 3.0 21:24:00 15° SSE 21:28:11 70° ENE 21:33:13 10° N
Resurs 01 Rocket 3.4 21:25:05 10° SSW 21:28:53 28° W 21:32:43 10° NW
JB-3 4.4 21:26:12 10° N 21:30:14 84° W 21:34:18 10° SSW
Geosat 4.1 21:27:07 16° SE 21:31:06 69° ENE 21:36:08 10° NNW
Spot 2 Rocket 3.7 21:31:19 13° S 21:35:54 70° WSW 21:41:00 10° NNW
NOSS 0 Rocket 4.5 21:32:45 13° S 21:37:46 38° ESE 21:43:29 10° NE
USA 215 4.4 21:33:24 10° ENE 21:37:56 20° ESE 21:39:57 17° SE
SPOT 5 2.9 21:36:40 16° SSE 21:40:41 88° ENE 21:45:33 10° NNW
Cosmos 1346 Rocket 3.6 21:38:56 21° SE 21:40:58 35° E 21:44:40 10° NNE
Cosmos 2219 Rocket 2.3 21:43:30 10° SSW 21:49:12 80° WNW 21:54:55 10° NNE
SL-4 R/B 2.0 21:47:00 10° SW 21:51:06 51° SE 21:54:54 10° ENE
ATLAS CENTAUR R/B 2.7 21:49:46 10° NW 21:53:46 34° WSW 21:56:38 17° S
Cosmos 2333 Rocket 2.7 21:49:19 10° SW 21:55:01 64° WNW 22:00:44 10° NNE
Cosmos 1606 Rocket 4.1 21:52:42 10° N 21:57:03 48° ENE 21:59:21 24° SE
Meteor 2-5 Rocket 3.8 21:55:10 10° SSW 22:00:42 79° W 22:06:23 10° N
Lacrosse 5 rocket 3.4 21:58:22 10° W 22:01:30 26° NNW 22:04:35 10° NE
Cosmos 2123 Rocket 4.4 21:55:58 10° SSW 22:02:11 64° WNW 22:08:30 10° N
ARIANE 5 R/B 3.8 22:01:42 14° SSW 22:05:12 38° W 22:09:26 10° NNW
Cosmos 2233 Rocket 4.0 21:59:17 10° N 22:05:29 87° W 22:09:55 20° S
SL-16 R/B 3.7 22:09:42 17° ESE 22:10:58 18° E 22:14:38 10° ENE
Cosmos 1455 3.0 22:08:11 10° N 22:11:47 38° ENE 22:13:08 28° ESE
Cosmos 2237 Rocket 2.4 22:08:25 21° S 22:11:54 50° ESE 22:17:19 10° NE
USA 267 4.5 22:06:55 10° E 22:12:55 40° NNE 22:18:55 10° NW
Cosmos 1447 Rocket 4.4 22:09:36 19° S 22:14:16 79° E 22:20:27 10° N
BREEZE-M DEB (TANK) 2.3 22:14:56 10° W 22:17:36 72° NNW 22:23:48 10° ENE
ALOS 2 4.5 22:18:46 14° E 22:21:04 20° ENE 22:24:15 10° NNE
Cosmos 1300 4.3 22:19:30 10° NNW 22:22:49 28° W 22:25:13 15° SW
Cosmos 389 Rocket 2.5 22:20:17 10° NNW 22:23:42 70° W 22:24:52 38° S
Cosmos 2228 3.1 22:19:57 10° NNW 22:24:21 74° W 22:26:31 29° S
Cosmos 1607 4.0 22:20:01 10° NW 22:26:29 86° NE 22:30:16 26° SE
Meteor 1-24 Rocket 4.2 22:23:34 12° SSW 22:28:27 57° WNW 22:33:56 10° N
Cosmos 968 Rocket 4.4 22:25:54 10° NW 22:30:39 40° WSW 22:33:33 21° SSW
Cosmos 1867 4.2 22:30:55 10° NW 22:36:06 44° WSW 22:38:40 27° S
H-2A R/B 4.2 22:36:19 10° N 22:40:16 48° WNW 22:43:02 18° SW
Cosmos 1992 Rocket 4.5 22:39:09 12° SW 22:43:56 60° WNW 22:49:08 10° NNE
Cosmos 2278 Rocket 2.4 22:40:09 10° NNW 22:45:44 59° WSW 22:48:27 30° S
COSMOS 2428 4.1 22:42:28 10° WSW 22:47:47 38° NW 22:53:09 10° NNE
BREEZE-M DEB (TANK) 2.9 22:45:11 10° WSW 22:55:19 69° SSE 22:58:30 10° ENE
Cosmos 1464 Rocket 4.0 22:50:25 10° N 22:56:51 86° E 23:00:08 31° S
Meteor 1-4 Rocket 3.3 22:54:47 10° N 22:58:03 37° ENE 22:58:33 35° E
Cosmos 1354 Rocket 4.2 22:53:03 10° NNW 22:58:21 63° WSW 23:00:36 34° S
ATLAS 3B R/B 4.2 22:53:45 10° W 22:59:44 35° NW 23:05:58 10° NNE
NOSS 3-1 (C) 3.7 23:02:14 34° SSE 23:03:32 39° ESE 23:09:08 10° NE
Terra 3.7 23:03:26 13° SW 23:06:09 21° W 23:09:44 10° NW
Cosmos 1943 Rocket 2.9 23:01:17 10° NNW 23:06:34 45° ENE 23:09:47 22° ESE
Meteor 1-21 Rocket 4.2 23:08:10 31° SSW 23:10:59 87° W 23:16:47 10° N
NOSS 2-3 (E) 4.3 23:14:30 32° ESE 23:14:30 32° ESE 23:18:31 10° NE
Cosmos 1184 Rocket 3.7 23:13:57 35° WSW 23:14:37 41° WNW 23:17:43 10° N
Cosmos 1812 Rocket 4.3 23:11:01 10° N 23:15:11 43° ENE 23:16:27 33° ESE
Cosmos 1816 Rocket 4.5 23:12:53 34° SSE 23:15:39 68° E 23:21:44 10° NNE
NOSS 3-1 (A) 4.2 23:15:08 27° SE 23:15:52 28° ESE 23:20:52 10° NE
Cosmos 1441 Rocket 3.3 23:15:09 48° SW 23:16:04 72° WNW 23:19:53 10° N
COBE Rocket 3.9 23:14:22 40° SSE 23:16:14 86° ENE 23:21:10 10° N
Okean 1-7 Rocket 3.6 23:15:34 40° SSW 23:17:06 76° W 23:21:33 10° N
USA 215 3.2 23:15:10 10° NE 23:21:43 70° SE 23:27:14 15° SW
Cosmos 2058 Rocket 3.7 23:17:51 10° NNW 23:22:06 46° W 23:23:27 34° SW
BREEZE-M DEB (TANK) 4.4 23:24:43 10° WNW 23:28:33 66° N 23:42:02 10° E
SJ 16-02 1.5 23:26:17 10° NNW 23:30:39 66° ENE 23:31:53 44° SE
SL-4 R/B 2.8 23:26:49 10° W 23:30:44 47° NNW 23:34:22 10° ENE
Cosmos 2034 Rocket 4.0 23:27:28 10° NNW 23:33:38 72° W 23:36:23 34° S
Cosmos 1703 4.1 23:33:41 34° WSW 23:34:51 44° WNW 23:38:41 10° N
Lacrosse 5 rocket 4.4 23:39:27 10° NW 23:41:34 15° N 23:43:42 10° NE
Cosmos 1825 Rocket 4.5 23:41:53 33° ESE 23:42:48 36° E 23:46:52 10° NNE
Nimbus 7 Rocket 4.5 23:36:50 10° NNE 23:42:54 69° ESE 23:45:25 37° S
Lacrosse 4 Rocket 4.3 23:42:26 10° NNE 23:43:58 12° NE 23:45:30 10° ENE
GP-B 3.2 23:42:10 10° N 23:46:35 63° E 23:47:38 47° SE
Cosmos 1455 4.4 23:44:41 10° NW 23:47:02 16° W 23:48:00 15° WSW
Elektron 1 3.8 23:44:45 10° NW 23:47:27 69° WNW 23:47:27 69° WNW
NOSS 2-3 (D) 3.4 23:54:33 56° S 23:55:16 70° SE 23:59:58 10° NE
